ONEWEB-0191, 48239

Orbit data source: Space-Track

ONEWEB-0191, 48239 is a payload satellite owned by One Web (NAA) (UK) in LEO that was launched on Sun, 25 Apr 2021 UTC via a SOYUZ-2-1B launch vehicle from the Vostochny Cosmodrome (VOSTO). Payload-class satellites include a variety of spacecraft equipped with specific instruments for various scientific and technological missions. These include communications satellites like Starlink; space stations such as the ISS; scientific satellites like the Hubble; Earth observation satellites from companies like Planet Labs, Umbra, and HawkEye 360; GPS; miniature CubeSats for education and research; and military/defense satellites.

Loading next visibility...
Identifier
48239, 2021-031AF
Orbit
LEO
Country
Flag of UKUK
Related business
Manufacturer
One Web
Mission
Operational Commercial Communications
Bus & Motor
ARROW, Unknown motor
Mass
148 kg wet, ~140 kg dry
Launch date (UTC)
2021-04-25 (5 years ago)
Launch vehicle
SOYUZ-2-1B
Launch site
Vostochny Cosmodrome (VOSTO)
Object type
Payload
Rocket body
Debris
Shape & HBR
Trap Box + 2 Pan, 6.7 m
Radar Cross Section
3.464 m², Large (>1 m²)

Expand to show TLE details & history
Last TLE update: 12 hours ago

TLE from 12 hours ago
0 ONEWEB-0191
1 48239U 21031AF  26094.62701332  .00000022  00000-0  23579-4 0  9992
2 48239  87.8942 304.3780 0001529  89.7659 270.3645 13.14504927238503
Epoch: 2026-04-04T15:02Z
TLE epoch observation values (Epoch: 2026-04-04T15:02:53.950Z)
Latitude
-0.00013°
Longitude
-114.29087°
Altitude
1,208.669 km
Speed
7.25 km/s
True Right ascension
20h 17m 30s
True Declination
0° 00' 00"
Sunlit
Object was in daylight at epoch
Visualization orbit readout
Latitude
Unknown
Longitude
Unknown
Altitude
Unknown
Speed
Unknown
Apparent Right ascension
Unknown
Apparent Declination
Unknown
Sunlit
N/A
Visualization observer readout
Local Sidereal Time
09:24:43
Azimuth
Unknown
Elevation
Unknown
Doppler factor
Unknown
Orbital elements
Apogee altitude
1,204.055 km
Perigee altitude
1,201.737 km
Semi-major axis
7,581.033 km
Eccentricity
0.00015
Inclination
87.8942°
RAAN
304.378°
Arg. of periapsis
89.7659°
True anomaly
270.34698°
Mean anomaly
270.3645°
Eccentric anomaly
270.35574°
Mean motion
3.28814 °/min
Orbital period
109.48 mins
BSTAR
0.000023579
Loading maneuver chart data...
Computing Atmospheric mass density...
Loading historical data...
Loading historical data...
Loading historical data...
Loading historical data...
Loading historical data...
Loading historical data...
Loading historical data...

Documentation

Showing up to 5 results
|